[[{"header":{"parameterUnit":"m.s-1","parameterCategory":1,"la1":30.2991,"la2":30.254,"lo1":-89.0895,"lo2":-89.0444,"dy":0.0017,"dx":0.0017,"nx":28,"ny":28,"refTime":"2024-02-12T09:00:00:Z","depth":0,"parameterNumber":2,"parameterNumberName":"U-component_of_WINDS"},"data":[0,0,0,0,0,0,0,0,0,0,0,0,0,0,0,0,0,0,0,0,0,0,0,0,0,0,0,0,0,0,0,0,0,0,0,0,0,0,0,0,0,0,0,0,0,0,0,0,0,0,0,0,0,0,0,0,0,0,1.6156,1.6156,0,1.6128,1.6128,1.6127,1.6088,1.6087,1.6086,1.6086,1.6056,1.6056,1.6056,0,0,0,0,0,0,0,0,0,0,0,0,0,1.6177,1.6177,1.6156,1.6156,1.6156,1.6128,1.6128,1.6127,1.6088,1.6087,1.6086,1.6085,1.6056,1.6056,1.6056,0,0,0,0,0,0,0,0,0,0,0,0,0,1.6161,1.6177,1.6156,1.6133,1.613,1.6128,1.6128,1.6127,1.6088,1.6087,1.6086,1.6085,1.6056,1.6056,1.6056,1.6074,0,0,1.6055,1.6055,0,0,0,0,0,0,0,0,1.6162,1.616,1.6137,1.6134,1.6132,1.611,1.6124,1.6109,1.6088,1.6104,1.6086,1.6085,1.6075,1.6073,1.607,1.6073,1.6072,1.6055,1.6055,1.6055,1.6055,0,0,0,0,0,0,0,1.6163,1.6161,1.6145,1.6136,1.6133,1.6124,1.612,1.6121,1.6096,1.6103,1.61,1.6097,1.6074,1.607,1.6069,1.6071,1.6055,1.6055,1.6055,1.6055,1.6089,1.609,0,0,0,0,0,0,1.6167,1.6162,1.6146,1.6144,1.6144,1.6124,1.612,1.6118,1.6095,1.6091,1.6098,1.6095,1.6071,1.6069,1.6068,1.6088,1.6055,1.6055,1.6055,1.6088,1.6089,1.609,0,0,0,0,0,0,1.6168,1.6166,1.6147,1.6152,1.6149,1.6125,1.6123,1.6118,1.6115,1.6092,1.6087,1.6099,1.607,1.6068,1.6073,1.6087,1.6055,1.6054,1.6087,1.6088,1.609,1.6129,0,0,0,0,0,0,1.6169,1.6167,1.6173,1.6153,1.6149,1.6153,1.6124,1.6118,1.6115,1.6111,1.6092,1.6088,1.6069,1.6074,1.6073,1.6086,1.6054,1.6085,1.6088,1.6089,1.6127,1.6132,1.6137,0,0,0,0,0,1.617,1.6185,1.6174,1.6172,1.6157,1.6154,1.6152,1.613,1.6116,1.6122,1.6108,1.6088,1.6086,1.6075,1.6073,1.6086,1.6085,1.6087,1.6089,1.6124,1.6131,1.6137,0,0,0,0,0,0,1.6208,1.6182,1.6169,1.6179,1.6169,1.6147,1.6155,1.6138,1.6132,1.6129,1.6103,1.6099,1.6107,1.6097,1.6086,1.6104,1.6082,1.6085,1.6109,1.6115,1.612,1.6122,1.6054,0,0,0,0,0,1.6217,1.6217,1.6195,1.6205,1.6201,1.6179,1.6177,1.6162,1.615,1.6146,1.6131,1.6121,1.6118,1.6116,1.6112,1.6126,1.6121,1.6134,1.6139,1.6143,1.6145,1.6152,1.6158,1.6098,1.6098,1.6098,0,0,1.6237,1.6223,1.6224,1.6213,1.6203,1.6204,1.6176,1.6177,1.6177,1.6146,1.615,1.6139,1.6126,1.6136,1.6139,1.6128,1.6161,1.6146,1.615,1.6149,1.6155,1.6161,1.6166,1.61,1.61,1.6099,0,0,1.6273,1.6262,1.627,1.6261,1.6247,1.6233,1.6235,1.6216,1.6208,1.6212,1.6188,1.6188,1.6183,1.6175,1.617,1.6205,1.6187,1.6204,1.623,1.6237,1.6242,1.6246,1.6258,1.6263,1.6207,1.6207,1.6207,0,1.6298,1.6298,1.6276,1.6279,1.6275,1.6247,1.6255,1.6248,1.6234,1.6232,1.6219,1.6213,1.6202,1.621,1.6218,1.6216,1.6217,1.6206,1.6243,1.6247,1.625,1.6262,1.6266,1.6209,1.6209,1.6209,1.6208,0,1.6331,1.6331,1.6339,1.6326,1.6323,1.6329,1.6308,1.6307,1.6293,1.628,1.6284,1.6271,1.6264,1.6265,1.625,1.627,1.6264,1.6248,1.6226,1.6258,1.6269,1.6273,1.6212,1.6211,1.6211,1.621,0,0,1.6388,1.6364,1.6367,1.6362,1.6345,1.6345,1.635,1.6343,1.6343,1.6335,1.6338,1.6336,1.6321,1.6316,1.63,1.6307,1.6335,1.629,1.6289,1.6299,1.6357,1.6369,1.6374,1.6324,1.6325,1.6325,1.6358,0,1.642,1.6427,1.6408,1.6419,1.6419,1.6394,1.6398,1.6389,1.6377,1.6376,1.6363,1.6362,1.6342,1.6339,1.6344,1.6331,1.6347,1.6328,1.6327,1.6327,1.633,1.638,1.6392,1.6423,1.6362,1.6363,1.6363,0,1.6458,1.6452,1.6464,1.6448,1.6447,1.6451,1.6444,1.6443,1.6432,1.6424,1.6419,1.6401,1.6405,1.6385,1.639,1.6378,1.6376,1.637,1.6371,1.6369,1.6346,1.6379,1.6433,1.6438,1.6369,1.6369,1.6368,0,1.6499,1.6494,1.65,1.6496,1.6477,1.6481,1.6473,1.6462,1.6459,1.6453,1.6451,1.6446,1.6443,1.644,1.6421,1.6408,1.6429,1.6407,1.6422,1.6422,1.6426,1.6426,1.648,1.6427,1.6426,1.6426,1.6426,0,1.6536,1.6544,1.6518,1.6522,1.6531,1.6509,1.6518,1.6508,1.6498,1.65,1.6478,1.648,1.6456,1.6456,1.6442,1.6449,1.6448,1.6441,1.6437,1.6442,1.6443,1.644,1.6437,1.6428,1.6427,1.6427,1.6427,0,1.6582,1.6565,1.6571,1.6553,1.6549,1.6556,1.6541,1.6544,1.6532,1.6534,1.6533,1.6514,1.6513,1.6494,1.6489,1.648,1.6492,1.6484,1.6495,1.6493,1.6508,1.6507,1.6562,1.6568,1.6511,1.6512,1.6512,0,1.6607,1.6613,1.6596,1.6596,1.6589,1.6589,1.6587,1.6567,1.6565,1.6554,1.6559,1.6556,1.6552,1.6551,1.6537,1.6533,1.6524,1.6544,1.6523,1.6529,1.6524,1.6524,1.6524,1.6548,1.6549,1.6549,1.655,0,1.6653,1.6644,1.6642,1.6637,1.6635,1.663,1.6623,1.6624,1.6602,1.6602,1.66,1.6598,1.6593,1.659,1.6584,1.6576,1.6559,1.6557,1.656,1.6565,1.6571,1.6568,1.6507,1.6555,1.6555,1.6554,1.6554,1.6554,1.6689,1.6693,1.6682,1.668,1.6673,1.6668,1.6671,1.6659,1.6657,1.6652,1.664,1.6641,1.6631,1.6621,1.6615,1.6615,1.6605,1.6609,1.661,1.6612,1.6615,1.6572,1.6614,1.6614,1.6613,1.6613,1.6613,0,1.6733,1.6725,1.6724,1.6716,1.6715,1.67,1.6692,1.6692,1.6693,1.6685,1.6683,1.6682,1.6679,1.6665,1.6661,1.6664,1.6657,1.6664,1.6663,1.6662,1.6624,1.6622,1.667,1.667,1.667,1.667,1.667,1.667,1.6756,1.6762,1.6753,1.6756,1.6748,1.6748,1.6745,1.6741,1.6735,1.6734,1.6732,1.6723,1.6713,1.6709,1.6706,1.6702,1.6702,1.6712,1.6705,1.667,1.6664,1.6659,1.6657,1.6712,1.6712,1.6743,1.6743,1.6743]},{"header":{"parameterUnit":"m.s-1","parameterCategory":1,"la1":30.2991,"la2":30.254,"lo1":-89.0895,"lo2":-89.0444,"dy":0.0017,"dx":0.0017,"nx":28,"ny":28,"refTime":"2024-02-12T09:00:00:Z","depth":0,"parameterNumber":3,"parameterNumberName":"V-component_of_WINDS"},"data":[0,0,0,0,0,0,0,0,0,0,0,0,0,0,0,0,0,0,0,0,0,0,0,0,0,0,0,0,0,0,0,0,0,0,0,0,0,0,0,0,0,0,0,0,0,0,0,0,0,0,0,0,0,0,0,0,0,0,-5.7488,-5.749,0,-5.7619,-5.762,-5.7622,-5.7616,-5.7614,-5.7612,-5.761,-5.7739,-5.7744,-5.7749,0,0,0,0,0,0,0,0,0,0,0,0,0,-5.723,-5.7235,-5.7488,-5.749,-5.7492,-5.7619,-5.7621,-5.7622,-5.7616,-5.7614,-5.7611,-5.7609,-5.7737,-5.7743,-5.7749,0,0,0,0,0,0,0,0,0,0,0,0,0,-5.7349,-5.7236,-5.7488,-5.7504,-5.7507,-5.7618,-5.7621,-5.7623,-5.7616,-5.7614,-5.7611,-5.7608,-5.7735,-5.7743,-5.775,-5.7853,0,0,-5.7774,-5.7777,0,0,0,0,0,0,0,0,-5.7343,-5.7359,-5.75,-5.7503,-5.7506,-5.7598,-5.7577,-5.77,-5.7617,-5.7574,-5.761,-5.7607,-5.7694,-5.7705,-5.7735,-5.7859,-5.7865,-5.7775,-5.7779,-5.7783,-5.7785,0,0,0,0,0,0,0,-5.7334,-5.7353,-5.754,-5.7502,-5.7506,-5.7503,-5.7517,-5.76,-5.7648,-5.7578,-5.7578,-5.7594,-5.7695,-5.7728,-5.7738,-5.7867,-5.7774,-5.7781,-5.7786,-5.7789,-5.8084,-5.8087,0,0,0,0,0,0,-5.7323,-5.7346,-5.7536,-5.7544,-5.7416,-5.751,-5.7526,-5.7571,-5.7647,-5.7656,-5.7596,-5.7593,-5.7716,-5.7729,-5.7743,-5.787,-5.7782,-5.779,-5.7794,-5.8081,-5.8084,-5.8088,0,0,0,0,0,0,-5.7318,-5.734,-5.753,-5.7445,-5.7469,-5.7518,-5.7569,-5.7575,-5.7608,-5.7661,-5.7669,-5.7621,-5.7714,-5.7732,-5.7827,-5.7874,-5.7793,-5.78,-5.8077,-5.8082,-5.8086,-5.8124,0,0,0,0,0,0,-5.731,-5.7338,-5.7379,-5.7446,-5.7474,-5.7613,-5.7572,-5.758,-5.7622,-5.7619,-5.7686,-5.7695,-5.7714,-5.7815,-5.7834,-5.7883,-5.7806,-5.8073,-5.8079,-5.8085,-5.8118,-5.8129,-5.8138,0,0,0,0,0,-5.7301,-5.7382,-5.7381,-5.7403,-5.7525,-5.7616,-5.7632,-5.7653,-5.7626,-5.7667,-5.7701,-5.7692,-5.7866,-5.7825,-5.7846,-5.7898,-5.807,-5.8077,-5.8084,-5.8114,-5.8127,-5.8138,0,0,0,0,0,0,-5.7317,-5.7391,-5.739,-5.7496,-5.755,-5.7615,-5.7666,-5.7666,-5.7727,-5.7722,-5.7745,-5.776,-5.7855,-5.7886,-5.7839,-5.8003,-5.7964,-5.7976,-5.7979,-5.7992,-5.8002,-5.7993,-5.7813,0,0,0,0,0,-5.7333,-5.7401,-5.7462,-5.755,-5.7577,-5.7617,-5.7657,-5.767,-5.7726,-5.7748,-5.7789,-5.7842,-5.7909,-5.7952,-5.8016,-5.8123,-5.8138,-5.8169,-5.8179,-5.8187,-5.8197,-5.8257,-5.8272,-5.8112,-5.8111,-5.8111,0,0,-5.7366,-5.7415,-5.7457,-5.7554,-5.7597,-5.7667,-5.7636,-5.7711,-5.7763,-5.7759,-5.7852,-5.7884,-5.7945,-5.8047,-5.8093,-5.8075,-5.8245,-5.8196,-5.8202,-5.8208,-5.8266,-5.8281,-5.8295,-5.8116,-5.8116,-5.8115,0,0,-5.7462,-5.7507,-5.7585,-5.763,-5.7697,-5.7723,-5.7742,-5.7808,-5.783,-5.7924,-5.7923,-5.7984,-5.8098,-5.8142,-5.818,-5.8296,-5.8291,-5.8316,-5.8368,-5.8426,-5.8438,-5.845,-5.8492,-5.8507,-5.8325,-5.8326,-5.8326,0,-5.7495,-5.7601,-5.7625,-5.7701,-5.7744,-5.7747,-5.7826,-5.7868,-5.7951,-5.7981,-5.796,-5.8105,-5.8146,-5.8258,-5.8287,-5.8317,-5.8339,-5.8308,-5.8435,-5.8447,-5.8458,-5.8498,-5.8514,-5.8328,-5.8328,-5.8328,-5.8327,0,-5.7638,-5.7712,-5.7767,-5.7851,-5.79,-5.7977,-5.8012,-5.8059,-5.8068,-5.8096,-5.8193,-5.8243,-5.8318,-5.8345,-5.8353,-5.846,-5.8447,-5.843,-5.8392,-5.8475,-5.8514,-5.8529,-5.8332,-5.8331,-5.833,-5.833,0,0,-5.7747,-5.7844,-5.7864,-5.7903,-5.7978,-5.8035,-5.8112,-5.8188,-5.8228,-5.8286,-5.8352,-5.845,-5.8436,-5.8478,-5.8491,-5.8542,-5.8632,-5.852,-5.8522,-5.854,-5.8754,-5.8766,-5.8784,-5.863,-5.8633,-5.8635,-5.8749,0,-5.7851,-5.7991,-5.8016,-5.8137,-5.8206,-5.821,-5.8278,-5.8331,-5.836,-5.8422,-5.8454,-5.8523,-5.8499,-5.8525,-5.8576,-5.8611,-5.8676,-5.8603,-5.869,-5.8693,-5.8675,-5.8803,-5.8816,-5.8921,-5.8764,-5.8767,-5.8768,0,-5.7992,-5.8056,-5.8186,-5.8253,-5.8283,-5.8344,-5.8416,-5.8475,-5.8535,-5.8553,-5.8602,-5.861,-5.869,-5.8649,-5.876,-5.871,-5.8747,-5.877,-5.8774,-5.8783,-5.8736,-5.8816,-5.8955,-5.8971,-5.8792,-5.879,-5.8788,0,-5.8059,-5.8178,-5.8271,-5.8304,-5.8385,-5.8428,-5.8463,-5.8521,-5.8565,-5.8628,-5.8657,-5.8727,-5.8766,-5.882,-5.8847,-5.8814,-5.8956,-5.8916,-5.8973,-5.8972,-5.9002,-5.9,-5.9149,-5.9026,-5.9026,-5.9025,-5.9025,0,-5.8173,-5.8252,-5.8303,-5.836,-5.8449,-5.8476,-5.8563,-5.8597,-5.8649,-5.8713,-5.872,-5.8779,-5.881,-5.8874,-5.8895,-5.8984,-5.9001,-5.9018,-5.9022,-5.9017,-5.9015,-5.9042,-5.9035,-5.903,-5.9029,-5.9028,-5.9027,0,-5.8263,-5.83,-5.8402,-5.8471,-5.8491,-5.8553,-5.8612,-5.8668,-5.8697,-5.8778,-5.8798,-5.8845,-5.892,-5.8953,-5.9045,-5.9059,-5.9161,-5.916,-5.9142,-5.9143,-5.9198,-5.9193,-5.937,-5.9395,-5.9255,-5.9256,-5.9257,0,-5.8334,-5.8395,-5.8472,-5.8516,-5.8554,-5.8624,-5.8671,-5.87,-5.8748,-5.8823,-5.8869,-5.8946,-5.9008,-5.9129,-5.917,-5.9241,-5.9242,-5.9299,-5.9252,-5.9246,-5.9243,-5.924,-5.9246,-5.9307,-5.9309,-5.931,-5.9311,0,-5.8456,-5.8472,-5.8539,-5.8614,-5.8669,-5.8729,-5.8787,-5.8822,-5.8861,-5.8914,-5.8993,-5.9042,-5.9138,-5.9213,-5.9287,-5.9322,-5.9323,-5.9326,-5.9342,-5.9338,-5.9325,-5.9334,-5.9166,-5.9321,-5.932,-5.9319,-5.9319,-5.9318,-5.8538,-5.8594,-5.8658,-5.8733,-5.878,-5.8835,-5.8892,-5.893,-5.8996,-5.9078,-5.9091,-5.9175,-5.9235,-5.9335,-5.9373,-5.9439,-5.9425,-5.9449,-5.9455,-5.9461,-5.9465,-5.9315,-5.9452,-5.9452,-5.9452,-5.9452,-5.9452,0,-5.8661,-5.8703,-5.8772,-5.8855,-5.8914,-5.8912,-5.8977,-5.9026,-5.9101,-5.9158,-5.922,-5.9311,-5.9385,-5.9433,-5.9508,-5.9552,-5.9554,-5.957,-5.9567,-5.9576,-5.9473,-5.9451,-5.9567,-5.9567,-5.9567,-5.9567,-5.9567,-5.9567,-5.8732,-5.8827,-5.885,-5.8968,-5.9009,-5.9093,-5.9131,-5.9181,-5.9227,-5.9329,-5.9392,-5.9423,-5.9477,-5.9556,-5.9623,-5.9636,-5.9663,-5.968,-5.9691,-5.9594,-5.9582,-5.9571,-5.9551,-5.9686,-5.9686,-5.9789,-5.979,-5.979]}]]